FW4582 Weather Reports


time (UTC)temp
C
wind
direction
speed
KPH
gust
KPH
rain 1hr
cm
rain 24hr
cm
rain mn
cm
humidity
%
barometer
mb
20260505140204 11 98 0.0 0.0 0.00 0.03 0.03 91 1017.8
20260505130204 11 98 0.0 0.0 0.00 0.03 0.03 91 1017.5
20260505124204 11 98 0.0 0.0 0.03 0.03 0.03 90 1017.8
20260505123205 11 98 0.0 0.0 0.03 0.03 0.03 90 1017.8
20260505122704 11 98 0.0 0.0 0.03 0.03 0.03 90 1017.8
20260505122204 11 98 0.0 0.0 0.03 0.03 0.03 90 1017.7
20260505121705 11 98 0.0 0.0 0.03 0.03 0.03 90 1017.7
20260505121204 11 98 0.0 0.0 0.03 0.03 0.03 89 1017.6
20260505120704 11 98 0.0 0.0 0.03 0.03 0.03 89 1017.5
20260505120205 11 98 0.0 0.0 0.03 0.03 0.03 89 1017.5
20260505115704 11 98 0.0 0.0 0.03 0.03 0.03 89 1017.7
20260505114704 11 98 0.0 0.0 0.00 0.00 0.00 89 1017.7
20260505114204 11 98 0.0 0.0 0.00 0.00 0.00 88 1017.8
20260505113704 11 98 0.0 0.0 0.00 0.00 0.00 88 1017.7
20260505113205 11 98 0.0 0.0 0.00 0.00 0.00 88 1017.8
20260505112204 11 98 0.0 0.0 0.00 0.00 0.00 88 1017.9
20260505111704 11 98 0.0 0.0 0.00 0.00 0.00 88 1017.8
20260505111204 11 98 0.0 0.0 0.00 0.00 0.00 88 1017.8
20260505110705 11 98 0.0 0.0 0.00 0.00 0.00 87 1017.8
20260505110204 11 98 0.0 0.0 0.00 0.00 0.00 87 1017.8
20260505102205 11 98 0.0 0.0 0.00 0.00 0.00 85 1017.8
20260505101704 11 98 0.0 0.0 0.00 0.00 0.00 85 1017.8
20260505101204 11 98 0.0 0.0 0.00 0.00 0.00 85 1017.9
20260505100704 11 98 0.0 0.0 0.00 0.00 0.00 85 1017.9
20260505100204 11 98 0.0 1.6 0.00 0.00 0.00 85 1017.9
20260505095704 11 98 0.0 1.6 0.00 0.00 0.00 84 1018.0
20260505095204 11 124 0.0 0.0 0.00 0.00 0.00 84 1018.0
20260505094204 11 124 0.0 0.0 0.00 0.00 0.00 84 1017.8
20260505093704 11 124 0.0 0.0 0.00 0.00 0.00 84 1018.0
20260505093205 11 124 0.0 1.6 0.00 0.00 0.00 84 1018.1
20260505092705 11 124 0.0 1.6 0.00 0.00 0.00 84 1018.1
20260505090705 11 127 0.0 0.0 0.00 0.00 0.00 83 1018.3
20260505085705 11 127 0.0 0.0 0.00 0.00 0.00 83 1018.3
20260505083705 11 127 0.0 0.0 0.00 0.00 0.00 82 1018.5
20260505083205 11 127 0.0 0.0 0.00 0.00 0.00 82 1018.6
20260505082204 12 127 0.0 0.0 0.00 0.00 0.00 81 1018.6
20260505081704 12 127 0.0 0.0 0.00 0.00 0.00 81 1018.6
20260505081205 12 127 0.0 0.0 0.00 0.00 0.00 81 1018.7
20260505080704 12 127 0.0 1.6 0.00 0.00 0.00 80 1018.7
20260505080205 12 124 0.0 1.6 0.00 0.00 0.00 80 1018.7
20260505075704 12 125 0.0 3.2 0.00 0.00 0.00 80 1018.7
20260505075204 12 122 0.0 3.2 0.00 0.00 0.00 79 1018.8
20260505074204 12 102 0.0 1.6 0.00 0.00 0.00 78 1018.9
20260505073704 12 130 0.0 1.6 0.00 0.00 0.00 78 1018.8
20260505073206 12 131 0.0 1.6 0.00 0.00 0.00 78 1018.8
20260505072704 12 149 0.0 1.6 0.00 0.00 0.00 78 1018.9
20260505072205 12 128 0.0 1.6 0.00 0.00 0.00 77 1018.9
20260505071204 12 117 0.0 1.6 0.00 0.00 0.00 77 1018.7
20260505070707 12 124 0.0 1.6 0.00 0.00 0.00 77 1018.6
20260505070205 12 130 0.0 1.6 0.00 0.00 0.00 77 1018.5
20260505065205 12 125 0.0 1.6 0.00 0.00 0.00 77 1018.5
20260505064705 12 127 0.0 1.6 0.00 0.00 0.00 77 1018.4
20260505064205 12 122 0.0 1.6 0.00 0.00 0.00 78 1018.4
20260505063705 12 128 0.0 1.6 0.00 0.00 0.00 78 1018.5
20260505063205 12 128 0.0 1.6 0.00 0.00 0.00 78 1018.5
20260505062704 12 127 0.0 1.6 0.00 0.00 0.00 79 1018.4
20260505061704 12 125 0.0 3.2 0.00 0.00 0.00 78 1018.2
20260505060705 12 129 0.0 4.8 0.00 0.00 0.00 79 1018.1
20260505060205 12 127 0.0 4.8 0.00 0.00 0.00 79 1018.0
20260505055204 12 126 0.0 3.2 0.00 0.00 0.00 79 1018.2
20260505054705 12 126 1.6 4.8 0.00 0.00 0.00 79 1018.2
20260505054203 12 127 0.0 4.8 0.00 0.00 0.00 79 1018.2
20260505053703 12 128 1.6 4.8 0.00 0.00 0.00 80 1018.3
20260505052704 12 124 0.0 1.6 0.00 0.00 0.00 80 1018.5
20260505051703 13 127 0.0 1.6 0.00 0.00 0.00 80 1018.4
20260505051203 13 143 0.0 4.8 0.00 0.00 0.00 80 1018.7
20260505050203 13 131 1.6 4.8 0.00 0.00 0.00 80 1018.8
20260505041703 13 126 0.0 3.2 0.00 0.00 0.00 81 1018.2
20260505041204 13 126 0.0 1.6 0.00 0.00 0.00 81 1018.2
20260505040703 13 127 0.0 0.0 0.00 0.00 0.00 81 1018.2
20260505040204 13 125 0.0 1.6 0.00 0.00 0.00 81 1018.2
20260505035203 13 131 0.0 3.2 0.00 0.00 0.00 81 1018.0
20260505034203 13 123 0.0 4.8 0.00 0.00 0.00 80 1018.0
20260505033703 13 125 0.0 4.8 0.00 0.00 0.00 81 1017.9
20260505033203 13 136 0.0 1.6 0.00 0.00 0.00 80 1017.8
20260505031203 13 127 0.0 3.2 0.00 0.00 0.00 79 1017.5
20260505030703 13 128 0.0 1.6 0.00 0.00 0.00 79 1017.5
20260505030203 13 124 0.0 1.6 0.00 0.00 0.00 78 1017.5
20260505025703 14 126 0.0 1.6 0.00 0.00 0.00 78 1017.5
20260505024704 14 130 0.0 0.0 0.00 0.00 0.00 76 1017.5
20260505024204 14 131 0.0 0.0 0.00 0.00 0.00 76 1017.5
20260505023703 14 124 0.0 3.2 0.00 0.00 0.00 76 1017.6
20260505023204 15 128 0.0 3.2 0.00 0.00 0.00 75 1017.5
20260505022704 15 124 1.6 3.2 0.00 0.00 0.00 75 1017.5
20260505022203 15 124 0.0 0.0 0.00 0.00 0.00 74 1017.4